AKDT,Max TemperatureF,Mean TemperatureF,Min TemperatureF,Max Dew PointF,MeanDew PointF,Min DewpointF,Max Humidity, Mean Humidity, Min Humidity, Max Sea Level PressureIn, Mean Sea Level PressureIn, Min Sea Level PressureIn, Max VisibilityMiles, Mean VisibilityMiles, Min VisibilityMiles, Max Wind SpeedMPH, Mean Wind SpeedMPH, Max Gust SpeedMPH,PrecipitationIn, CloudCover, Events, WindDirDegrees
2012-10-1,50,46,41,43,38,32,93,76,54,30.46,30.04,29.69,10,10,5,17,8,24,0.00,6,,290
2012-10-2,46,40,35,37,36,30,87,78,62,30.63,30.58,30.47,10,10,8,9,3,,0.00,1,,197
2012-10-3,48,45,42,41,38,37,87,77,71,30.58,30.53,30.51,10,10,6,8,5,,0.00,8,,129
2012-10-4,51,46,42,43,40,37,93,78,58,30.54,30.53,30.51,10,10,1,7,3,,0.00,8,,127
2012-10-5,53,48,44,48,44,43,93,88,77,30.53,30.49,30.42,10,8,0,7,2,,0.00,7,,297
2012-10-6,53,48,44,48,45,43,93,88,77,30.43,30.38,30.33,10,8,0,7,2,,0.00,5,,309
2012-10-7,53,48,42,46,43,39,93,87,76,30.33,30.26,30.18,10,7,0,9,4,,0.00,3,,291
2012-10-8,53,48,44,45,43,39,93,84,71,30.18,30.12,30.07,10,10,2,10,5,,0.00,4,,281
2012-10-9,50,46,42,45,42,39,93,87,81,30.10,30.08,30.06,10,10,7,6,1,,0.00,7,,331
2012-10-10,53,48,44,45,42,39,93,82,67,30.10,30.04,29.94,10,10,10,7,2,,0.00,5,,299
2012-10-11,50,47,44,45,42,37,87,83,71,29.94,29.75,29.47,10,10,10,14,3,17,0.00,8,,62
2012-10-12,51,46,42,46,42,39,93,84,76,29.46,29.38,29.30,10,8,3,18,11,24,0.00,8,,88
2012-10-13,51,48,46,46,44,41,87,82,71,29.72,29.62,29.41,10,10,7,18,8,25,0.00,7,,147
2012-10-14,51,48,44,46,43,37,93,81,62,29.44,29.15,29.04,10,8,1,17,9,26,0.00,7,,128
2012-10-15,51,48,44,43,41,39,93,81,66,29.53,29.29,29.07,10,10,5,16,9,23,0.00,8,,139
2012-10-16,44,42,41,41,37,36,87,78,71,30.01,29.62,29.15,10,10,8,15,4,20,0.00,8,,152
2012-10-17,42,40,37,36,35,32,87,78,70,30.04,29.85,29.66,10,10,5,20,11,28,0.00,8,Rain,121
2012-10-18,44,38,33,36,33,30,93,82,66,29.92,29.83,29.71,10,10,5,13,5,,0.00,6,,124
2012-10-19,42,38,33,34,30,27,87,75,57,29.71,29.67,29.65,10,10,10,10,5,,0.00,7,,112
2012-10-20,44,38,33,30,25,19,81,58,42,29.89,29.80,29.70,10,10,10,16,6,23,0.00,3,,90
2012-10-21,41,39,37,21,17,16,49,42,36,30.05,30.00,29.90,10,10,10,20,16,29,0.00,0,,81
2012-10-22,42,40,37,16,16,14,41,38,33,30.05,30.00,29.95,10,10,10,20,15,28,0.00,0,,82
2012-10-23,44,40,37,18,16,12,45,37,31,30.09,30.01,29.95,10,10,10,16,12,22,0.00,0,,94
2012-10-24,42,37,32,21,17,14,60,44,34,30.34,30.18,30.09,10,10,10,13,8,20,0.00,1,,106
2012-10-25,42,36,30,25,18,16,75,49,34,30.39,30.36,30.32,10,10,10,14,6,18,0.00,1,,101
2012-10-26,39,36,32,25,16,12,69,46,36,30.33,30.22,30.08,10,10,10,14,8,23,0.00,0,,88
2012-10-27,37,34,30,12,9,7,41,38,35,30.08,29.94,29.83,10,10,10,16,11,23,0.00,0,,95
2012-10-28,33,30,28,10,8,7,43,39,32,29.91,29.88,29.85,10,10,10,16,13,26,0.00,1,,82
2012-10-29,33,30,26,10,7,3,51,39,32,30.05,29.89,29.82,10,10,10,18,13,24,0.00,0,,81
2012-10-30,33,28,24,16,11,7,59,49,41,30.10,30.03,29.90,10,10,10,10,7,,0.00,1,,82
2012-10-31,35,30,24,19,16,12,69,60,44,29.89,29.80,29.75,10,10,7,7,3,,0.00,1,,172